Content
SEND FEEDBACK

Daily
Averages
Monthly
Summary
Mexico

CANCUN, QUINTANA ROO


Home > North America > Mexico > Quintana Roo
Elevation: 9 meters     Latitude: 21 09N     Longitude: 086 49W

WEATHER
 
SELECT A DAY
Number of Records: 163,700;   Date Range: 1/1/95 - 7/27/14
 
SHARE

PRINT THIS DATA

[ ← Previous Day ]
WEATHER ALMANAC - 13 JANUARY, 2013
[ Next Day → ]
[ °F ]   °C
Weather ElementAverageHighLow
Temperature26 °C29 °C (11:42 am)23 °C (11:46 pm)
Dewpoint21.3 °C22 °C (5:41 am)20 °C (8:43 am)
Humidity75.9 %94 % (11:46 pm)62 % (11:42 am)
Barometer1014.6 hPa1016.3 hPa (8:43 am)1012.9 hPa (4:42 am)
Wind Speed18.8 km/h33.3 km/h (10:43 am)
Weather ElementAverage
Visibility11.3 km
Wind DirectionESE (125.7 °)

Weather ElementTotal
Precipitation---
Cooling Degree Days7.7 (Base 18.3)
Growing Degree Days16 (Base 10)
Averaged from 23 records on 13 January, 2013
WEATHER CONDITIONS BREAKOUT
WIND DIRECTION BREAKOUT
WEATHER BY HOUR - 13 JANUARY, 2013
[ °F ]   °C
Local TimeTemperatureDewpointHumidityBarometerVisibilityWind DirectionWind SpeedGust SpeedPrecipitationEventsConditions
1:42 AM25 °C21 °C78 %1014.2 hPa11.3 kmESE (120°)18.5 km/hScattered Clouds
2:40 AM25 °C21 °C78 %1013.2 hPa11.3 kmESE (120°)16.7 km/hScattered Clouds
3:42 AM25 °C21 °C78 %1013.2 hPa11.3 kmESE (120°)18.5 km/hScattered Clouds
4:42 AM25 °C21 °C78 %1012.9 hPa11.3 kmESE (120°)22.2 km/hScattered Clouds
5:41 AM25 °C22 °C83 %1013.2 hPa11.3 kmSE (130°)22.2 km/hScattered Clouds
6:46 AM25 °C21 °C78 %1014.9 hPa11.3 kmSE (130°)16.7 km/hScattered Clouds
7:42 AM27 °C21 °C70 %1015.2 hPa11.3 kmESE (120°)22.2 km/hMostly Cloudy
8:43 AM27 °C20 °C65 %1016.3 hPa11.3 kmSE (130°)29.6 km/hScattered Clouds
9:42 AM28 °C21 °C66 %1016.3 hPa11.3 kmESE (120°)25.9 km/hScattered Clouds
10:43 AM28 °C21 °C66 %1015.2 hPa11.3 kmSE (130°)33.3 km/hMostly Cloudy
11:42 AM29 °C21 °C62 %1014.6 hPa11.3 kmSE (130°)24.1 km/hMostly Cloudy
12:44 PM28 °C21 °C66 %1013.9 hPa11.3 kmSE (130°)24.1 km/hMostly Cloudy
1:44 PM27 °C21 °C70 %1014.2 hPa11.3 kmSE (130°)20.4 km/hMostly Cloudy
2:41 PM28 °C21 °C66 %1014.2 hPa11.3 kmSE (130°)18.5 km/hMostly Cloudy
3:43 PM27 °C22 °C74 %1014.6 hPa11.3 kmSSE (150°)20.4 km/hMostly Cloudy
4:44 PM27 °C22 °C74 %1014.9 hPa11.3 kmSE (130°)18.5 km/hMostly Cloudy
5:51 PM25 °C22 °C83 %1014.9 hPa11.3 kmSE (130°)13 km/hScattered Clouds
6:51 PM25 °C22 °C83 %1015.2 hPa11.3 kmEast (90°)9.3 km/hScattered Clouds
7:42 PM25 °C21 °C78 %1014.9 hPa11.3 kmESE (120°)16.7 km/hPartly Cloudy
8:51 PM25 °C22 °C83 %1014.9 hPa11.3 kmESE (120°)9.3 km/hPartly Cloudy
9:48 PM25 °C22 °C83 %1015.6 hPa11.3 kmESE (120°)9.3 km/hPartly Cloudy
10:47 PM24 °C22 °C89 %1016.3 hPa11.3 kmSE (140°)9.3 km/hPartly Cloudy
11:46 PM23 °C22 °C94 %1015.2 hPa11.3 kmSE (130°)13 km/hClear
Hourly data recorded from MMUN, located 0 kilometers away from Cancun, Quintana Roo







STORIES FROM OUR PARTNERS